SCP
-0 -0 -0 -0 -0 0 0 0 0 0 0 0 0 1 0 0 0 0 0 0 0 0 0 0 0 0 0 0 0 0 0 0 0 0 0 0 0 0
0 -0 0 -0 0 0 0 0 0 0 0 1 1 1 1 1 1 1 1 0 0 0 0 0 0 0 0 0 0 0 0 0 0 0 0 0 0 0
0 0 0 0 0 0 0 0 0 0 0 1 1 1 1 1 1 1 1 0 0 0 0 0 0 0 0 0 0 0 0 0 0 0 0 0 0 0
0 0 0 0 0 1 1 1 1 1 1 1 1 1 2 1 1 1 1 1 0 0 0 0 0 0 0 0 0 0 0 0 0 0 0 0 0 0
1 0 1 1 1 1 1 1 1 1 2 1 1 1 1 1 1 1 2 1 1 0 0 0 0 0 0 0 0 0 0 0 0 0 0 0 0 0
1 1 1 1 1 1 1 1 1 1 1 2 1 0 1 1 1 1 1 2 2 0 0 0 0 0 0 0 0 0 0 0 0 0 0 0 0 0
1 1 1 1 1 1 1 1 1 1 1 1 1 0 1 1 2 2 2 2 2 1 0 0 0 0 0 0 0 0 0 0 0 0 0 0 0 0
1 1 1 1 0 0 0 0 1 1 1 1 1 1 2 2 2 3 3 2 2 0 0 0 0 0 0 0 0 0 0 0 0 0 0 0 0 0
1 1 1 0 1 0 1 0 0 0 0 2 2 2 3 3 3 3 3 3 1 0 0 0 0 0 0 0 0 0 0 0 0 0 0 0 0 0
1 1 1 1 1 1 1 1 1 1 1 1 1 2 2 3 4 3 2 1 0 0 0 0 0 0 0 0 0 0 0 0 0 0 0 0 0 0
1 1 1 1 1 1 1 1 1 1 1 1 1 1 1 0 0 1 1 0 0 0 0 0 0 0 0 0 0 0 0 0 0 0 0 0 0 0
1 1 0 0 1 1 1 1 1 1 1 2 2 1 0 0 0 0 1 0 0 0 0 0 0 0 0 0 0 0 0 0 0 0 0 0 0 0
1 1 1 1 0 0 0 1 1 1 1 2 2 3 3 2 2 0 1 0 0 0 0 0 0 0 0 0 0 0 0 0 0 0 0 0 0 0
1 1 1 1 0 0 0 0 0 0 1 1 2 2 2 3 3 1 0 0 0 0 0 0 0 0 0 0 0 0 0 0 0 0 0 0 0 0
1 1 1 0 0 0 0 0 0 0 0 1 1 1 2 3 1 0 0 0 0 0 0 0 0 0 0 0 0 0 0 0 0 0 0 0 0 0
0 -0 -0 0 0 0 0 0 0 1 1 1 1 1 2 0 0 0 0 0 0 0 0 0 0 0 0 0 0 0 0 0 0 0 0 0 0 0
1 0 0 1 1 1 1 1 1 1 1 0 1 1 1 0 0 0 0 0 0 0 0 0 0 0 0 0 0 0 0 0 0 0 0 0 0 0
0 0 1 1 1 1 1 1 1 1 1 0 1 0 0 0 0 0 0 0 0 0 0 0 0 0 0 0 0 0 0 0 0 0 0 0 0 0
0 1 2 2 2 1 1 1 1 2 1 1 1 1 0 0 0 0 0 0 0 0 0 0 0 0 0 0 0 0 0 0 0 0 0 0 0 0
0 1 1 1 1 1 2 1 1 2 2 1 1 0 0 0 0 0 0 0 0 0 0 0 0 0 0 0 0 0 0 0 0 0 0 0 0 0
0 0 0 0 0 1 1 1 1 1 1 2 1 0 0 0 0 0 0 0 0 0 0 0 0 0 0 0 0 0 0 0 0 0 0 0 0 0
0 0 0 0 0 0 0 0 0 1 1 1 0 0 0 0 0 0 0 0 0 0 0 0 0 0 0 0 0 0 0 0 0 0 0 0 0 0
0 0 0 0 0 0 0 0 0 0 0 0 0 0 0 0 0 0 0 0 0 0 0 0 0 0 0 0 0 0 0 0 0 0 0 0 0 0
Wind_Speed_500mb
21 21 20 18 17 19 20 23 24 20 30 28 44 40 38 36 32 35 39 40 40 40 41 39 36 31 28 31 31 28 21 27 26 22 20 14 14 14
19 19 17 17 19 21 22 24 27 31 26 37 47 47 41 40 41 42 45 45 42 41 40 40 34 34 29 31 28 28 25 31 26 27 25 20 13 11
22 23 23 24 24 26 29 30 33 38 47 46 51 50 43 42 43 44 42 44 44 38 40 39 39 39 34 34 30 28 28 29 27 28 32 30 23 18
26 27 25 27 27 29 32 35 38 42 50 63 57 60 62 54 50 46 44 43 42 40 39 40 39 41 33 33 34 33 30 29 24 23 32 36 35 33
33 32 29 31 32 32 35 41 40 38 43 57 65 59 67 66 62 55 56 47 42 40 38 37 37 34 30 29 33 34 31 31 23 21 27 33 38 41
38 38 39 40 40 39 41 46 47 49 43 52 62 65 66 63 59 60 57 42 48 43 35 35 36 30 27 29 30 29 26 22 20 22 25 31 38 43
51 51 51 50 48 49 51 53 55 54 44 45 54 53 50 47 49 47 45 49 49 41 36 39 34 33 28 30 26 25 20 18 18 22 27 32 35 39
65 65 65 65 66 63 61 59 58 61 67 52 53 55 73 64 51 47 43 41 43 47 34 40 41 34 30 28 25 20 20 20 23 28 28 29 31 31
80 80 80 72 77 78 75 74 69 65 65 63 66 68 68 63 59 59 47 49 50 51 46 46 44 35 28 25 19 20 22 17 20 21 21 23 25 23
87 86 85 82 78 76 76 76 76 72 70 67 67 66 63 58 53 53 54 48 52 48 42 41 42 32 21 19 17 18 13 15 13 12 15 18 20 23
77 80 80 77 72 69 69 71 72 73 70 72 68 66 62 57 51 54 51 45 49 45 43 37 39 25 18 19 18 15 11 12 13 15 19 23 27 30
71 70 67 67 64 62 64 66 71 73 67 65 67 66 58 56 51 50 45 49 44 43 35 33 32 18 10 17 20 16 13 14 19 22 27 31 30 15
74 73 72 72 65 61 62 65 71 64 62 61 64 63 62 62 56 49 43 43 43 39 41 40 24 14 17 11 16 17 16 15 19 25 28 31 30 25
72 76 77 74 68 62 62 66 64 59 64 64 64 65 61 58 56 53 45 42 40 37 39 33 20 14 18 17 10 11 13 16 20 22 24 32 29 29
83 82 72 66 64 66 65 65 65 69 71 68 70 66 56 57 54 51 47 43 36 32 31 25 21 18 18 16 12 9 8 12 18 21 24 24 26 28
58 59 57 58 60 61 64 67 70 67 72 66 65 52 50 49 49 49 50 43 35 31 30 24 22 20 19 19 17 12 11 7 21 22 25 22 22 25
55 62 62 59 59 60 61 61 61 58 54 50 43 45 61 58 53 48 50 44 38 32 24 22 23 22 21 19 16 13 11 11 19 22 21 11 14 24
53 67 63 58 58 57 58 56 55 54 52 50 52 59 52 52 53 44 38 39 35 32 25 25 26 25 23 20 20 13 12 12 19 23 20 13 11 18
60 61 63 62 65 62 62 58 50 45 49 51 54 52 53 45 34 31 27 27 30 34 29 31 27 26 24 16 16 14 11 13 17 15 17 14 13 13
52 56 61 60 62 64 61 52 46 48 46 53 55 55 51 35 31 33 30 28 42 33 38 37 34 30 23 14 14 13 11 10 13 9 8 17 21 15
44 47 50 56 55 57 54 55 52 55 53 52 49 46 38 35 36 38 37 38 28 29 39 38 35 24 32 24 16 15 13 10 13 12 18 10 6 2
44 40 37 39 42 43 49 55 53 51 48 45 45 40 35 32 34 33 30 25 27 29 34 33 32 35 32 23 17 17 16 12 14 17 17 14 9 6
33 31 28 29 30 30 29 33 36 37 38 40 41 37 36 34 31 29 29 29 28 25 28 30 38 38 33 24 23 16 15 14 14 15 20 18 16 6
Wind_Direction_500mb
270 278 281 289 301 311 321 326 330 326 321 326 331 337 334 332 324 310 308 309 312 314 317 313 312 303 283 309 317 304 285 307 283 262 268 280 299 308
270 280 289 295 303 307 312 317 321 318 304 311 323 327 329 329 324 315 307 304 305 312 305 314 308 300 285 287 312 310 289 304 286 248 247 251 275 305
275 280 285 292 300 305 307 311 315 314 309 307 308 318 323 324 326 323 317 306 300 299 302 303 306 295 293 286 293 312 300 305 280 252 243 244 247 260
272 276 282 288 293 298 303 305 307 308 308 308 310 314 317 325 326 328 327 316 305 300 304 309 303 299 294 283 288 298 304 302 276 263 244 246 249 253
273 274 278 281 287 293 298 299 301 298 298 305 311 310 316 320 322 327 326 325 311 302 302 304 303 300 296 281 287 289 302 296 266 255 259 256 254 255
274 277 281 282 286 293 295 298 302 303 295 298 305 307 309 316 319 324 323 315 316 311 301 305 308 299 293 275 283 293 297 293 263 265 260 263 266 263
274 276 279 282 284 287 291 295 300 298 292 291 297 301 301 303 300 302 299 311 311 315 310 302 297 310 290 285 280 291 294 286 273 274 277 272 273 272
276 279 282 285 285 286 286 288 290 292 292 287 289 289 301 305 301 299 296 299 301 313 298 306 307 305 282 285 278 281 295 290 281 281 281 275 272 273
276 277 278 278 283 287 288 290 288 286 284 286 285 289 294 297 297 295 294 296 299 305 300 301 307 295 275 281 266 273 287 287 293 290 287 283 281 277
273 274 276 278 279 281 284 286 287 288 289 289 290 291 290 292 288 288 292 290 295 298 294 283 300 292 284 273 256 269 273 303 298 293 293 293 290 284
272 272 273 276 278 281 283 282 282 282 285 285 284 284 284 283 283 281 284 288 294 291 289 276 297 283 274 257 250 241 264 297 297 295 295 296 299 291
273 273 272 272 274 275 277 280 281 284 287 284 285 287 286 283 279 278 277 288 290 288 287 284 280 257 249 244 234 228 265 288 293 294 299 303 309 292
273 272 274 277 277 277 277 276 278 285 284 282 281 282 284 285 284 281 276 284 287 279 279 283 280 257 235 233 232 237 258 280 297 305 301 300 306 294
271 272 271 275 280 279 274 272 275 279 276 277 280 282 286 288 285 278 271 274 279 284 275 275 271 262 245 231 239 237 254 287 302 300 305 310 307 303
264 264 268 272 273 271 271 272 272 271 272 275 278 284 289 283 280 278 275 272 274 282 268 265 263 254 243 228 230 231 249 287 309 309 313 314 311 310
268 268 265 263 266 271 272 272 273 276 275 276 281 285 281 282 278 278 285 271 277 272 256 256 251 245 242 232 239 242 263 275 306 313 319 319 319 321
271 271 265 267 269 273 277 278 273 274 275 273 274 284 292 285 278 277 282 268 270 260 252 250 245 244 232 230 238 248 253 280 306 312 324 318 323 325
256 252 264 269 271 275 279 281 282 271 267 265 263 296 293 283 283 276 273 270 265 262 248 254 242 234 223 227 233 235 260 277 308 320 323 323 325 320
269 267 270 274 279 280 280 283 281 277 266 260 273 286 294 292 279 273 275 286 284 287 256 253 239 224 211 209 234 217 231 287 311 323 327 323 327 321
276 274 273 273 274 277 275 272 276 276 263 267 274 285 282 279 280 272 266 258 259 266 258 245 234 218 205 212 216 222 248 276 308 296 313 330 329 330
279 281 282 280 277 269 264 264 271 272 274 276 276 274 265 267 266 269 267 279 263 270 261 254 241 209 208 223 227 238 253 277 303 305 320 335 318 266
292 292 291 284 275 273 268 258 268 272 269 265 265 264 261 265 272 271 268 266 254 255 252 251 221 212 210 210 209 218 263 280 298 309 319 330 324 269
292 279 279 281 282 279 278 281 275 270 264 259 259 259 264 268 266 262 243 246 246 253 246 229 213 212 215 215 207 198 249 278 298 317 319 338 341 328
Wind_Speed_850mb
21 21 20 18 17 19 20 23 24 20 30 28 44 40 38 36 32 35 39 40 40 40 41 39 36 31 28 31 31 28 21 27 26 22 20 14 14 14
19 19 17 17 19 21 22 24 27 31 26 37 47 47 41 40 41 42 45 45 42 41 40 40 34 34 29 31 28 28 25 31 26 27 25 20 13 11
22 23 23 24 24 26 29 30 33 38 47 46 51 50 43 42 43 44 42 44 44 38 40 39 39 39 34 34 30 28 28 29 27 28 32 30 23 18
26 27 25 27 27 29 32 35 38 42 50 63 57 60 62 54 50 46 44 43 42 40 39 40 39 41 33 33 34 33 30 29 24 23 32 36 35 33
33 32 29 31 32 32 35 41 40 38 43 57 65 59 67 66 62 55 56 47 42 40 38 37 37 34 30 29 33 34 31 31 23 21 27 33 38 41
38 38 39 40 40 39 41 46 47 49 43 52 62 65 66 63 59 60 57 42 48 43 35 35 36 30 27 29 30 29 26 22 20 22 25 31 38 43
51 51 51 50 48 49 51 53 55 54 44 45 54 53 50 47 49 47 45 49 49 41 36 39 34 33 28 30 26 25 20 18 18 22 27 32 35 39
65 65 65 65 66 63 61 59 58 61 67 52 53 55 73 64 51 47 43 41 43 47 34 40 41 34 30 28 25 20 20 20 23 28 28 29 31 31
80 80 80 72 77 78 75 74 69 65 65 63 66 68 68 63 59 59 47 49 50 51 46 46 44 35 28 25 19 20 22 17 20 21 21 23 25 23
87 86 85 82 78 76 76 76 76 72 70 67 67 66 63 58 53 53 54 48 52 48 42 41 42 32 21 19 17 18 13 15 13 12 15 18 20 23
77 80 80 77 72 69 69 71 72 73 70 72 68 66 62 57 51 54 51 45 49 45 43 37 39 25 18 19 18 15 11 12 13 15 19 23 27 30
71 70 67 67 64 62 64 66 71 73 67 65 67 66 58 56 51 50 45 49 44 43 35 33 32 18 10 17 20 16 13 14 19 22 27 31 30 15
74 73 72 72 65 61 62 65 71 64 62 61 64 63 62 62 56 49 43 43 43 39 41 40 24 14 17 11 16 17 16 15 19 25 28 31 30 25
72 76 77 74 68 62 62 66 64 59 64 64 64 65 61 58 56 53 45 42 40 37 39 33 20 14 18 17 10 11 13 16 20 22 24 32 29 29
83 82 72 66 64 66 65 65 65 69 71 68 70 66 56 57 54 51 47 43 36 32 31 25 21 18 18 16 12 9 8 12 18 21 24 24 26 28
58 59 57 58 60 61 64 67 70 67 72 66 65 52 50 49 49 49 50 43 35 31 30 24 22 20 19 19 17 12 11 7 21 22 25 22 22 25
55 62 62 59 59 60 61 61 61 58 54 50 43 45 61 58 53 48 50 44 38 32 24 22 23 22 21 19 16 13 11 11 19 22 21 11 14 24
53 67 63 58 58 57 58 56 55 54 52 50 52 59 52 52 53 44 38 39 35 32 25 25 26 25 23 20 20 13 12 12 19 23 20 13 11 18
60 61 63 62 65 62 62 58 50 45 49 51 54 52 53 45 34 31 27 27 30 34 29 31 27 26 24 16 16 14 11 13 17 15 17 14 13 13
52 56 61 60 62 64 61 52 46 48 46 53 55 55 51 35 31 33 30 28 42 33 38 37 34 30 23 14 14 13 11 10 13 9 8 17 21 15
44 47 50 56 55 57 54 55 52 55 53 52 49 46 38 35 36 38 37 38 28 29 39 38 35 24 32 24 16 15 13 10 13 12 18 10 6 2
44 40 37 39 42 43 49 55 53 51 48 45 45 40 35 32 34 33 30 25 27 29 34 33 32 35 32 23 17 17 16 12 14 17 17 14 9 6
33 31 28 29 30 30 29 33 36 37 38 40 41 37 36 34 31 29 29 29 28 25 28 30 38 38 33 24 23 16 15 14 14 15 20 18 16 6
Wind_Direction_850mb
270 278 281 289 301 311 321 326 330 326 321 326 331 337 334 332 324 310 308 309 312 314 317 313 312 303 283 309 317 304 285 307 283 262 268 280 299 308
270 280 289 295 303 307 312 317 321 318 304 311 323 327 329 329 324 315 307 304 305 312 305 314 308 300 285 287 312 310 289 304 286 248 247 251 275 305
275 280 285 292 300 305 307 311 315 314 309 307 308 318 323 324 326 323 317 306 300 299 302 303 306 295 293 286 293 312 300 305 280 252 243 244 247 260
272 276 282 288 293 298 303 305 307 308 308 308 310 314 317 325 326 328 327 316 305 300 304 309 303 299 294 283 288 298 304 302 276 263 244 246 249 253
273 274 278 281 287 293 298 299 301 298 298 305 311 310 316 320 322 327 326 325 311 302 302 304 303 300 296 281 287 289 302 296 266 255 259 256 254 255
274 277 281 282 286 293 295 298 302 303 295 298 305 307 309 316 319 324 323 315 316 311 301 305 308 299 293 275 283 293 297 293 263 265 260 263 266 263
274 276 279 282 284 287 291 295 300 298 292 291 297 301 301 303 300 302 299 311 311 315 310 302 297 310 290 285 280 291 294 286 273 274 277 272 273 272
276 279 282 285 285 286 286 288 290 292 292 287 289 289 301 305 301 299 296 299 301 313 298 306 307 305 282 285 278 281 295 290 281 281 281 275 272 273
276 277 278 278 283 287 288 290 288 286 284 286 285 289 294 297 297 295 294 296 299 305 300 301 307 295 275 281 266 273 287 287 293 290 287 283 281 277
273 274 276 278 279 281 284 286 287 288 289 289 290 291 290 292 288 288 292 290 295 298 294 283 300 292 284 273 256 269 273 303 298 293 293 293 290 284
272 272 273 276 278 281 283 282 282 282 285 285 284 284 284 283 283 281 284 288 294 291 289 276 297 283 274 257 250 241 264 297 297 295 295 296 299 291
273 273 272 272 274 275 277 280 281 284 287 284 285 287 286 283 279 278 277 288 290 288 287 284 280 257 249 244 234 228 265 288 293 294 299 303 309 292
273 272 274 277 277 277 277 276 278 285 284 282 281 282 284 285 284 281 276 284 287 279 279 283 280 257 235 233 232 237 258 280 297 305 301 300 306 294
271 272 271 275 280 279 274 272 275 279 276 277 280 282 286 288 285 278 271 274 279 284 275 275 271 262 245 231 239 237 254 287 302 300 305 310 307 303
264 264 268 272 273 271 271 272 272 271 272 275 278 284 289 283 280 278 275 272 274 282 268 265 263 254 243 228 230 231 249 287 309 309 313 314 311 310
268 268 265 263 266 271 272 272 273 276 275 276 281 285 281 282 278 278 285 271 277 272 256 256 251 245 242 232 239 242 263 275 306 313 319 319 319 321
271 271 265 267 269 273 277 278 273 274 275 273 274 284 292 285 278 277 282 268 270 260 252 250 245 244 232 230 238 248 253 280 306 312 324 318 323 325
256 252 264 269 271 275 279 281 282 271 267 265 263 296 293 283 283 276 273 270 265 262 248 254 242 234 223 227 233 235 260 277 308 320 323 323 325 320
269 267 270 274 279 280 280 283 281 277 266 260 273 286 294 292 279 273 275 286 284 287 256 253 239 224 211 209 234 217 231 287 311 323 327 323 327 321
276 274 273 273 274 277 275 272 276 276 263 267 274 285 282 279 280 272 266 258 259 266 258 245 234 218 205 212 216 222 248 276 308 296 313 330 329 330
279 281 282 280 277 269 264 264 271 272 274 276 276 274 265 267 266 269 267 279 263 270 261 254 241 209 208 223 227 238 253 277 303 305 320 335 318 266
292 292 291 284 275 273 268 258 268 272 269 265 265 264 261 265 272 271 268 266 254 255 252 251 221 212 210 210 209 218 263 280 298 309 319 330 324 269
292 279 279 281 282 279 278 281 275 270 264 259 259 259 264 268 266 262 243 246 246 253 246 229 213 212 215 215 207 198 249 278 298 317 319 338 341 328